Location: Unspecified
(51.0950°N, 12.9690°E)
Time: 19:45:45
(UTC+00:00)

BUGSAT 1 - Pass Details

Date: 19 May 2025
Orbit: 512 x 554 km, 98.1° (Epoch: 16 June)

Event Time Altitude Azimuth Distance (km) Brightness Sun altitude
Exits shadow 19:41:36 - 141° (SE) 1,933 ? -6.2°
Reaches altitude 10° 19:42:04 10° 138° (SE) 1,749 ? -6.2°
Maximum altitude 19:45:36 40° 69° (ENE) 772 ? -6.6°
Drops below altitude 10° 19:49:08 10° 359° (N) 1,751 ? -7.0°
Sets 19:51:19 0° 352° (N) 2,641 ? -7.3°
